Wind_Speed
12 10 11 13 14 14 14 15 15 15 15 16 16 16 16 15 13 12 11 10 7 5 4 2 3 6 6 8 8 8 9 8 8 9 9 11 14 16 17 18 19 25 33 35 33 32 31 30 28 27 27 26 26 26 27 27 27 27 25 24 24 22
15 13 10 10 12 13 14 15 15 15 15 16 17 17 17 16 14 11 10 8 6 5 5 3 3 6 6 9 9 8 8 7 6 7 8 10 12 15 16 17 19 25 33 34 33 32 31 30 28 27 26 26 25 25 27 27 27 27 24 24 25 23
14 16 14 11 11 12 14 15 15 15 15 16 17 18 17 16 14 12 10 6 5 6 6 4 5 8 9 11 10 7 6 6 5 6 7 9 11 13 15 17 18 24 32 33 33 32 31 30 28 28 27 26 25 25 26 27 27 26 24 24 25 24
13 15 16 14 11 11 13 14 15 15 15 16 17 18 17 16 13 12 11 6 5 6 6 6 7 9 10 12 10 6 5 5 6 7 7 8 10 12 14 16 18 23 30 33 33 32 31 30 29 28 27 26 25 25 25 25 26 26 24 24 25 24
14 14 15 15 14 13 13 14 15 14 16 16 17 18 16 14 12 11 11 9 7 6 6 8 8 9 10 12 11 8 5 5 7 8 8 8 9 10 12 14 16 20 28 32 34 34 32 31 30 29 28 27 26 25 25 25 26 26 24 24 26 25
15 14 14 14 16 17 16 14 15 15 17 16 16 17 15 13 13 11 12 10 6 6 8 8 8 9 9 11 11 9 7 6 6 8 10 10 9 9 11 12 15 18 25 32 34 34 34 32 31 30 29 28 27 26 25 25 26 24 22 25 26 26
16 14 15 15 16 18 18 17 15 15 17 17 17 16 16 16 14 12 13 11 8 9 9 8 10 9 9 11 11 12 10 8 6 6 8 11 10 9 10 11 12 15 21 30 34 35 35 33 32 32 30 29 28 27 25 25 26 24 21 23 25 26
16 16 17 16 15 17 20 20 16 13 15 17 17 17 17 17 16 14 14 14 12 11 11 10 11 11 11 12 12 13 10 9 9 7 6 8 9 9 9 11 11 13 17 26 33 36 35 34 33 33 31 30 29 27 26 26 26 23 21 21 24 25
16 17 18 18 18 18 18 20 20 19 18 19 19 19 18 16 16 17 16 16 13 13 14 13 12 12 12 11 12 12 11 12 12 9 6 6 8 9 9 10 11 11 14 20 28 33 35 35 34 34 32 30 29 28 27 27 26 24 21 21 24 24
15 17 18 20 20 20 19 19 21 23 23 23 22 20 19 18 18 19 18 18 16 15 16 14 14 14 12 11 12 12 14 17 14 11 9 7 8 8 7 8 9 11 12 14 20 27 32 36 36 35 34 32 30 29 28 28 26 25 23 22 23 23
14 15 18 19 20 20 21 21 21 23 24 24 23 21 21 21 21 20 20 20 19 19 17 15 16 14 12 12 13 12 15 18 17 14 11 8 7 7 7 6 7 11 12 14 17 20 26 33 37 36 35 33 32 30 28 28 27 26 25 23 23 23
12 13 14 16 17 19 21 21 22 23 23 24 25 24 23 22 21 21 21 21 21 21 19 17 16 13 14 15 15 14 14 16 19 18 13 9 7 7 8 7 7 10 12 15 18 18 20 26 34 37 36 35 33 32 30 29 28 27 26 25 23 23
11 12 12 13 15 17 19 21 22 23 22 23 26 27 26 23 21 21 21 22 23 23 21 18 17 15 15 17 18 17 16 16 19 20 15 10 9 9 9 9 9 10 12 16 18 18 19 21 28 34 36 37 35 33 32 31 30 29 28 26 24 24
12 12 13 13 14 16 18 20 21 22 21 22 25 26 27 26 23 21 21 22 23 24 23 20 19 18 16 18 18 17 18 17 17 20 18 13 11 9 8 9 10 11 13 17 18 18 19 20 23 28 32 35 36 35 34 33 32 31 30 29 27 25
15 15 15 15 15 16 18 19 19 19 21 22 24 25 26 28 27 23 20 21 23 24 24 22 22 20 18 19 19 17 17 16 14 17 18 15 13 11 9 9 10 12 14 16 18 18 18 19 20 23 27 30 32 34 34 34 34 33 33 32 30 29
16 17 16 16 16 17 18 19 18 18 20 21 23 24 24 26 29 28 23 22 22 23 23 22 23 22 21 21 19 18 18 18 17 16 15 13 12 13 13 12 12 13 14 14 16 18 18 17 17 19 23 25 27 29 31 32 33 34 34 33 33 32
15 16 16 16 17 17 18 19 19 18 18 19 21 23 23 24 28 31 29 26 24 23 23 22 23 24 23 21 20 19 20 22 22 19 18 15 12 13 15 14 14 15 15 13 15 17 17 17 17 18 20 21 23 26 28 29 30 32 33 33 34 34
14 14 15 16 16 17 18 18 18 18 17 18 19 20 22 23 25 29 31 31 28 25 25 25 24 24 23 22 21 20 22 24 23 21 20 18 17 17 16 16 16 17 17 16 16 16 16 17 17 18 19 19 21 24 26 27 28 29 30 32 33 33
13 12 13 14 15 16 17 17 16 16 16 17 18 18 20 22 23 25 28 29 30 30 30 29 27 26 24 24 23 22 22 22 21 22 22 21 21 21 19 19 19 19 19 18 18 18 18 17 15 17 20 20 20 22 24 25 26 27 28 30 31 32
12 11 11 13 14 14 15 15 15 15 15 16 16 16 18 20 22 23 24 25 28 31 32 32 32 31 29 28 27 26 26 24 22 23 23 23 23 23 23 23 23 22 21 21 20 20 21 21 17 17 20 20 20 21 23 24 25 27 28 28 29 31
11 10 11 12 12 13 14 14 14 14 16 16 15 15 16 17 19 21 22 23 25 26 28 30 32 33 33 33 32 31 31 30 29 28 27 26 25 26 26 26 28 27 24 23 22 21 22 22 19 19 19 18 20 21 22 26 27 26 27 27 28 28
12 11 11 11 11 13 14 15 15 15 16 16 15 16 15 16 18 19 21 22 23 24 24 25 28 29 31 32 32 33 33 33 34 34 33 32 30 29 28 28 29 29 27 26 25 24 24 23 21 21 21 19 21 22 20 24 26 25 26 27 27 27
12 12 12 12 12 12 14 15 16 16 17 17 15 16 17 16 17 18 20 20 21 22 22 23 25 25 26 27 29 30 31 31 32 33 34 35 34 33 32 31 29 29 29 28 28 26 26 27 25 24 25 23 22 22 19 21 23 22 22 24 26 27
13 13 13 13 12 11 13 14 15 15 16 17 16 16 17 18 18 18 19 19 20 21 21 22 23 24 25 25 27 27 28 28 28 29 30 32 34 34 35 34 31 29 29 29 30 29 28 29 28 26 28 27 24 22 19 19 19 18 18 20 24 26
14 13 11 11 10 9 10 10 11 13 13 14 15 15 16 16 17 17 18 18 19 20 21 22 22 23 24 25 26 26 27 28 28 28 28 29 30 32 34 35 34 32 31 30 29 29 30 31 30 29 29 29 28 26 22 18 17 17 17 17 20 22
15 13 9 8 8 7 7 7 8 9 9 11 11 11 13 14 15 15 16 17 17 18 19 20 21 22 23 24 25 25 26 27 28 29 29 29 29 29 31 33 35 34 33 32 30 30 31 32 32 32 31 30 31 30 25 20 18 18 19 18 17 19
14 12 9 8 8 7 7 6 6 7 7 8 9 9 10 12 14 15 16 16 16 17 17 18 19 20 21 22 23 24 25 26 28 29 30 31 30 29 29 29 32 35 35 34 33 32 31 31 34 34 34 32 31 30 28 24 20 18 20 21 19 18
14 13 10 10 10 9 9 8 8 8 9 9 10 10 11 11 13 15 16 17 17 17 18 18 18 19 19 20 21 22 23 24 26 28 30 31 31 31 30 29 30 32 34 34 34 34 32 32 33 34 34 34 32 32 32 29 25 23 23 24 25 23
15 15 12 11 11 10 10 10 10 11 12 13 13 14 14 14 13 15 16 18 19 19 18 19 19 19 19 19 20 21 21 22 24 26 28 29 31 32 32 31 30 30 31 32 33 34 33 34 34 34 34 34 33 34 35 31 28 28 27 26 28 29
17 16 13 12 12 11 12 12 13 14 14 16 16 16 17 17 16 17 17 18 19 20 20 20 20 20 20 20 20 21 21 22 22 23 25 27 29 30 31 32 32 32 32 32 32 33 33 34 35 35 36 36 36 36 37 34 31 31 31 30 30 30
19 19 16 14 14 13 13 14 15 16 17 18 18 18 19 19 18 18 18 18 18 19 21 21 21 21 20 20 21 21 22 22 23 23 23 25 26 28 29 31 32 33 34 34 34 33 33 34 35 36 36 38 38 38 38 37 35 33 33 33 34 34
20 20 18 16 15 15 15 17 18 18 18 19 20 20 20 20 20 19 18 19 18 18 19 19 20 21 22 22 22 22 22 23 23 24 24 24 25 26 27 29 30 31 33 35 36 35 34 34 36 37 38 39 40 40 39 38 37 35 35 35 37 38
20 20 19 16 16 16 16 18 19 20 20 21 21 21 22 21 21 20 19 19 19 19 19 19 19 20 20 22 23 23 24 24 24 24 25 25 26 26 27 28 28 29 31 33 35 37 37 36 37 37 38 40 40 40 40 40 39 38 38 38 40 40
19 20 19 18 16 17 18 19 21 21 21 22 22 22 23 23 22 21 21 20 20 20 20 20 20 19 19 19 20 22 23 25 26 26 26 26 26 27 27 28 28 28 30 31 33 36 37 38 38 36 36 39 40 39 39 40 42 42 41 41 41 41
19 20 20 18 17 18 20 21 21 21 22 22 23 23 24 24 23 22 22 22 21 21 21 21 21 21 21 19 19 20 21 23 25 26 27 27 27 27 27 28 29 29 30 30 31 33 35 38 40 39 38 39 40 40 40 39 40 41 41 41 41 40
18 20 20 18 18 19 20 21 20 21 22 23 24 24 24 25 24 23 23 23 22 22 21 22 22 22 22 22 21 21 21 22 23 24 26 28 29 29 29 29 29 30 30 30 31 32 33 35 38 40 40 40 40 39 39 39 39 39 39 40 40 39
18 20 20 19 18 19 20 20 20 21 22 23 24 24 24 25 24 23 23 23 23 23 22 23 23 23 23 23 23 23 23 24 24 24 24 26 28 30 31 31 30 30 30 31 32 32 32 32 34 37 39 41 42 41 40 41 41 39 38 38 38 38
Wind_Direction
258 252 246 246 250 254 257 259 257 251 245 240 236 235 236 238 237 234 235 234 225 200 192 178 149 165 159 159 164 159 158 162 179 183 183 181 178 178 176 177 180 182 185 185 182 181 180 180 181 181 184 185 187 187 189 193 194 199 197 186 188 191
253 251 250 249 250 251 254 257 259 256 250 243 239 238 239 243 243 243 245 236 211 186 187 180 169 172 168 163 150 148 161 162 177 191 194 189 183 182 178 177 180 182 184 186 184 182 181 181 182 183 186 187 189 190 191 195 197 203 200 188 191 193
255 251 250 250 251 251 251 253 258 259 253 247 244 243 246 250 252 249 245 235 195 180 175 180 198 181 169 157 139 141 165 175 200 211 211 201 191 186 181 178 180 183 185 186 186 184 182 182 183 185 188 187 190 192 194 198 199 204 202 192 196 197
265 254 249 247 249 253 252 252 255 257 253 249 248 247 248 250 251 248 244 236 189 183 179 184 204 191 166 144 140 155 171 203 224 227 229 218 205 193 185 180 181 184 186 187 187 185 184 183 184 187 190 189 191 194 197 200 202 206 202 197 202 202
271 260 252 247 245 248 250 253 252 253 254 252 247 244 244 243 241 242 241 231 201 197 194 189 204 201 173 149 152 168 181 221 236 240 247 239 224 207 193 184 182 185 186 188 188 187 186 185 186 189 192 192 194 197 199 201 205 209 202 199 206 208
274 267 259 247 240 243 246 251 251 253 255 251 247 241 238 234 227 232 239 237 222 216 198 184 205 209 186 171 166 170 189 219 236 252 260 255 245 224 209 194 185 186 189 189 189 189 188 188 188 191 194 195 197 200 201 202 206 211 204 201 207 211
279 271 263 252 242 240 241 245 247 252 254 248 246 240 236 233 225 229 241 242 229 221 212 193 203 203 188 189 182 176 191 214 226 248 266 267 262 239 222 210 194 189 192 192 190 191 191 191 191 193 195 197 201 203 202 205 209 211 206 204 208 211
276 270 266 263 256 244 238 238 235 234 245 246 243 238 236 235 230 230 235 235 224 222 227 209 201 203 195 192 189 184 193 215 223 231 260 273 266 248 232 220 211 202 197 196 194 194 194 194 194 196 198 199 203 206 205 208 213 213 207 203 206 211
268 267 266 266 262 254 246 240 233 228 233 238 236 237 239 235 231 229 228 231 228 226 229 215 200 207 205 198 201 201 202 212 218 223 236 256 247 239 241 231 225 222 212 205 201 198 197 197 198 199 201 202 205 207 207 210 215 217 212 202 204 210
263 262 262 263 264 265 261 252 243 238 236 234 230 230 234 234 233 231 230 231 228 224 228 226 214 206 204 207 213 212 213 214 212 212 214 222 227 221 235 242 236 238 236 228 216 207 203 201 201 202 204 206 208 209 209 212 216 218 218 209 205 210
261 258 259 263 267 268 265 259 250 244 240 236 231 226 227 231 234 233 232 232 228 223 223 229 226 207 198 212 215 212 220 220 214 214 207 200 218 219 226 242 242 243 245 246 238 223 212 207 205 206 207 209 211 212 212 214 217 218 220 217 211 214
261 260 260 264 268 266 265 262 255 250 245 237 233 229 226 229 235 235 233 233 232 227 223 223 228 215 202 216 223 218 219 222 222 221 208 193 203 215 226 233 242 251 253 254 249 239 229 217 210 208 210 212 214 215 215 216 219 221 223 223 218 218
266 264 265 267 269 269 268 264 259 258 252 240 235 232 228 227 233 237 233 233 233 231 227 222 227 225 212 216 222 220 218 223 230 225 209 194 194 205 227 233 240 254 258 258 254 248 247 237 221 213 211 213 215 217 219 219 221 224 227 228 226 223
275 272 273 273 273 273 270 266 263 262 256 246 240 235 230 226 227 234 234 233 232 231 230 224 223 226 223 225 224 224 224 221 222 219 210 204 200 207 228 233 239 246 250 258 261 258 258 253 238 223 217 216 216 218 220 222 224 226 231 234 235 233
280 279 280 278 276 274 271 270 267 262 256 250 246 240 234 228 226 229 231 233 233 232 232 228 224 223 225 229 227 229 234 233 228 222 219 218 216 220 231 238 242 242 243 253 261 261 261 260 251 235 225 222 222 222 221 223 226 228 231 235 240 242
281 281 281 277 275 272 270 270 267 261 255 251 248 246 240 231 229 228 227 229 232 235 234 230 227 227 229 231 229 229 235 244 248 245 241 239 234 232 238 244 247 246 242 245 252 257 259 261 259 246 234 230 231 231 227 226 228 230 233 235 239 243
281 280 276 272 270 267 267 265 264 261 256 252 248 249 247 238 233 231 230 229 229 233 236 235 232 232 234 235 234 231 233 241 245 247 250 252 247 242 245 244 244 248 247 244 245 251 258 260 257 249 240 238 240 241 238 233 232 233 235 237 239 241
282 278 272 267 264 261 260 259 260 260 256 253 248 248 249 245 241 237 236 234 232 231 233 236 237 236 237 238 238 236 236 240 244 245 248 249 245 242 246 246 245 248 250 250 248 251 256 260 261 258 248 241 242 247 247 243 239 237 238 240 241 243
284 278 270 265 262 259 257 256 257 258 257 256 252 249 249 250 249 246 243 240 238 236 235 237 239 240 242 243 244 244 243 243 245 246 245 243 244 243 244 246 244 242 246 247 247 250 252 252 258 262 259 252 247 248 250 250 248 245 243 243 244 246
284 278 271 264 264 262 261 260 260 260 259 258 257 253 252 254 254 254 254 249 245 243 242 241 242 243 246 248 249 249 250 249 249 250 249 245 245 245 244 245 244 239 240 243 244 247 249 250 249 250 260 266 263 255 251 253 252 251 249 247 248 250
282 276 270 265 267 268 268 269 267 267 266 262 262 260 257 257 259 261 261 259 255 251 249 247 246 247 249 251 252 251 253 253 253 254 253 251 248 246 245 246 246 242 239 241 245 246 246 250 249 248 258 269 272 265 254 253 253 255 256 254 252 253
280 273 270 268 267 268 271 273 272 273 273 270 270 268 264 259 259 260 261 263 263 262 259 255 253 252 252 253 254 254 254 254 255 254 254 253 251 250 250 248 247 245 242 242 245 247 248 251 249 251 260 265 269 269 257 254 255 255 259 260 258 258
278 275 271 264 263 265 268 272 274 276 277 277 276 274 273 268 265 262 260 261 265 266 265 262 260 258 257 257 256 256 257 256 255 255 255 254 253 252 253 253 249 245 245 245 246 247 250 254 255 255 260 258 260 266 259 256 260 261 262 264 263 262
275 275 270 263 261 260 262 266 271 273 275 279 280 279 278 275 273 270 265 262 262 265 266 265 266 265 263 261 259 258 258 258 258 257 257 255 254 253 253 255 254 249 248 247 248 250 251 255 258 256 257 253 248 255 259 259 266 269 268 266 266 266
273 273 265 259 256 249 253 258 263 270 274 277 281 283 283 282 280 279 276 270 265 265 266 266 267 268 267 266 264 263 260 259 259 259 259 258 256 254 253 254 255 254 253 252 252 253 251 254 257 256 255 252 247 251 257 257 260 264 265 267 269 271
268 268 254 240 239 231 236 244 252 262 269 276 281 284 286 288 288 287 285 282 277 273 272 270 270 270 269 268 267 266 264 262 260 259 260 260 259 257 255 253 253 253 253 255 256 254 251 251 255 257 254 251 251 253 252 245 244 254 262 266 270 273
257 256 244 228 231 229 231 239 252 262 269 280 287 287 289 293 294 294 292 290 288 284 281 278 275 274 274 272 270 268 266 265 263 262 261 261 261 260 258 254 253 253 253 254 255 256 256 253 253 256 254 253 253 249 243 240 242 252 260 262 266 270
247 249 243 233 238 244 246 250 261 273 277 282 289 291 292 296 298 299 297 295 292 290 288 286 282 280 278 277 275 272 269 267 265 264 263 262 262 261 261 259 256 254 254 254 255 255 256 254 254 255 255 255 253 246 241 242 246 250 252 256 261 263
244 248 244 239 245 252 256 260 265 274 280 282 287 290 289 289 291 295 299 299 296 293 290 289 288 286 284 282 280 278 275 271 268 266 266 265 263 262 262 262 261 259 256 255 255 254 253 254 254 255 256 255 253 251 248 247 250 251 249 249 254 260
245 249 245 243 250 255 262 270 272 276 282 284 285 289 290 289 290 292 295 296 296 295 293 290 288 288 288 286 285 283 282 278 275 271 269 268 267 265 263 263 262 262 261 258 256 255 254 254 253 253 255 255 253 253 253 252 253 253 251 248 248 254
246 250 249 246 254 260 266 273 275 277 281 283 284 287 288 288 288 289 289 290 291 292 293 293 291 289 289 289 287 286 285 284 282 278 274 271 270 269 267 265 263 263 263 262 259 257 255 253 252 252 253 254 254 252 252 255 255 252 250 250 247 248
246 253 254 252 258 265 271 275 276 276 279 280 282 283 284 284 284 285 285 286 286 285 287 289 291 291 290 289 288 287 286 285 284 283 280 277 274 272 270 268 266 264 263 263 262 260 257 253 251 252 252 253 254 252 252 256 257 253 250 250 250 250
247 254 257 258 262 269 275 277 277 278 278 279 280 281 282 283 283 283 282 281 280 280 280 283 285 288 290 290 290 289 289 287 285 284 283 281 279 277 274 271 269 266 263 262 262 262 261 257 255 254 255 255 254 252 252 254 256 255 253 253 253 255
247 253 259 260 264 270 275 276 278 279 280 281 281 282 283 283 282 283 282 280 278 276 276 277 279 280 283 286 289 290 290 290 289 287 285 284 282 280 278 276 273 270 267 264 262 262 262 261 259 254 254 256 256 253 252 252 252 253 254 254 254 257
248 255 259 262 267 273 276 277 279 282 283 284 284 284 284 283 283 284 284 282 279 276 273 273 275 276 277 278 280 283 286 287 288 289 289 287 285 283 280 278 277 275 272 269 266 264 262 262 261 256 252 254 256 256 256 256 254 252 251 253 255 257
251 257 262 267 272 276 278 279 281 283 284 284 283 283 283 283 284 285 285 283 281 277 274 273 274 274 275 276 277 278 280 282 283 285 288 288 288 286 284 281 279 278 276 274 271 268 265 263 263 262 258 255 255 255 257 259 258 254 251 251 253 256
251 259 266 273 277 279 280 281 282 282 282 282 282 282 282 282 284 285 284 283 281 279 276 275 274 275 275 276 277 279 280 282 281 281 283 285 286 286 285 284 282 280 278 277 275 273 270 266 263 263 262 260 258 255 254 255 257 257 255 252 251 253
Height
3148 3149 3149 3149 3149 3149 3149 3148 3148 3148 3149 3149 3149 3149 3150 3150 3151 3152 3152 3153 3154 3154 3154 3155 3155 3156 3155 3156 3156 3157 3158 3158 3160 3161 3161 3162 3162 3163 3164 3164 3165 3167 3169 3171 3172 3174 3176 3178 3179 3181 3181 3182 3183 3184 3185 3187 3188 3189 3191 3193 3193 3195
3146 3147 3147 3148 3148 3148 3148 3147 3147 3147 3148 3148 3149 3149 3149 3149 3150 3151 3152 3153 3153 3154 3155 3155 3156 3156 3156 3156 3157 3158 3158 3159 3160 3161 3161 3162 3163 3163 3164 3165 3165 3167 3168 3170 3172 3173 3175 3177 3179 3180 3181 3182 3183 3184 3185 3186 3187 3189 3191 3193 3193 3194
3145 3145 3146 3147 3147 3146 3146 3146 3146 3147 3147 3148 3148 3149 3149 3149 3150 3151 3152 3153 3153 3154 3156 3156 3156 3156 3156 3157 3157 3159 3160 3160 3161 3161 3161 3162 3163 3164 3164 3165 3166 3166 3168 3170 3172 3174 3175 3177 3179 3180 3181 3182 3183 3184 3185 3185 3187 3188 3192 3193 3193 3194
3144 3144 3144 3145 3145 3145 3145 3145 3145 3146 3146 3147 3148 3148 3149 3149 3150 3151 3152 3153 3153 3154 3155 3156 3156 3156 3156 3157 3158 3160 3160 3161 3161 3161 3162 3162 3163 3164 3164 3165 3166 3167 3168 3170 3172 3173 3175 3176 3178 3179 3180 3181 3182 3184 3185 3185 3186 3187 3191 3193 3192 3194
3142 3143 3143 3144 3144 3144 3144 3144 3144 3145 3146 3146 3147 3147 3148 3149 3150 3151 3151 3152 3152 3153 3155 3156 3156 3157 3157 3158 3159 3160 3161 3161 3162 3162 3162 3162 3163 3164 3165 3165 3166 3167 3168 3169 3171 3172 3174 3175 3177 3178 3179 3181 3182 3183 3184 3185 3186 3186 3190 3192 3192 3193
3141 3141 3142 3143 3143 3142 3142 3143 3144 3144 3145 3145 3146 3146 3148 3148 3149 3150 3150 3153 3153 3153 3154 3155 3156 3157 3157 3158 3159 3160 3162 3162 3162 3163 3163 3163 3163 3164 3165 3166 3167 3167 3168 3168 3170 3172 3173 3175 3176 3177 3178 3180 3181 3182 3184 3184 3184 3186 3189 3190 3191 3192
3140 3140 3140 3141 3141 3141 3141 3142 3143 3144 3144 3145 3145 3146 3147 3147 3148 3150 3150 3153 3154 3153 3153 3155 3155 3156 3157 3158 3159 3160 3161 3162 3163 3163 3163 3163 3163 3164 3165 3166 3167 3168 3168 3168 3169 3171 3172 3174 3175 3176 3177 3178 3180 3181 3183 3184 3184 3185 3188 3189 3190 3192
3139 3139 3139 3139 3139 3140 3140 3140 3141 3142 3143 3144 3145 3145 3146 3147 3149 3149 3149 3150 3152 3153 3153 3154 3154 3155 3157 3158 3158 3159 3160 3161 3162 3163 3163 3163 3163 3164 3164 3165 3166 3167 3168 3168 3169 3170 3172 3173 3175 3175 3176 3177 3179 3180 3182 3183 3184 3185 3187 3188 3189 3191
3138 3137 3138 3137 3137 3138 3138 3139 3140 3141 3142 3144 3145 3145 3145 3146 3148 3148 3148 3149 3151 3152 3152 3153 3153 3154 3156 3158 3158 3159 3159 3160 3161 3162 3162 3162 3163 3163 3164 3164 3166 3167 3168 3169 3169 3170 3171 3173 3174 3175 3175 3176 3177 3179 3181 3182 3183 3185 3187 3188 3189 3190
3137 3137 3136 3136 3135 3136 3137 3137 3138 3140 3140 3142 3144 3145 3145 3145 3146 3147 3148 3148 3150 3151 3150 3151 3152 3153 3155 3156 3157 3158 3159 3160 3160 3161 3162 3162 3163 3163 3163 3164 3165 3167 3168 3169 3170 3170 3171 3172 3173 3174 3175 3176 3176 3178 3179 3181 3182 3184 3185 3187 3188 3189
3136 3136 3135 3135 3134 3135 3135 3135 3136 3137 3138 3140 3141 3143 3144 3144 3145 3146 3148 3148 3148 3150 3150 3150 3151 3152 3154 3154 3155 3157 3158 3160 3160 3161 3162 3162 3163 3163 3163 3164 3165 3166 3167 3169 3169 3170 3171 3171 3171 3173 3174 3175 3175 3177 3178 3179 3181 3182 3183 3186 3188 3189
3135 3134 3134 3134 3134 3133 3133 3133 3134 3134 3136 3138 3139 3140 3142 3142 3143 3145 3147 3147 3147 3148 3149 3149 3149 3150 3152 3153 3154 3155 3157 3159 3160 3161 3162 3161 3162 3163 3163 3164 3166 3166 3167 3168 3168 3169 3170 3170 3170 3171 3172 3173 3174 3175 3177 3178 3179 3181 3182 3183 3186 3187
3134 3134 3134 3133 3133 3132 3132 3132 3132 3132 3134 3136 3137 3139 3140 3141 3142 3144 3146 3146 3146 3147 3147 3148 3147 3147 3150 3151 3151 3152 3155 3157 3158 3161 3162 3160 3161 3163 3163 3164 3165 3166 3167 3168 3169 3168 3169 3170 3170 3170 3170 3171 3172 3174 3175 3176 3178 3179 3180 3181 3184 3186
3132 3132 3132 3132 3132 3131 3130 3130 3130 3131 3132 3133 3135 3136 3138 3140 3141 3142 3144 3145 3144 3145 3146 3147 3146 3146 3148 3149 3149 3152 3153 3154 3156 3158 3160 3160 3160 3162 3163 3164 3165 3166 3167 3168 3169 3168 3168 3169 3169 3169 3169 3170 3170 3171 3173 3174 3176 3177 3179 3180 3181 3183
3131 3131 3131 3130 3130 3130 3129 3129 3129 3130 3130 3131 3132 3134 3136 3138 3139 3140 3142 3143 3143 3143 3145 3146 3146 3145 3146 3147 3148 3150 3153 3155 3156 3157 3158 3160 3161 3162 3162 3164 3165 3165 3166 3167 3167 3167 3167 3168 3168 3168 3168 3169 3169 3170 3171 3172 3174 3175 3177 3178 3179 3181
3129 3129 3129 3129 3129 3128 3128 3127 3128 3129 3129 3130 3130 3131 3133 3135 3136 3138 3140 3141 3142 3142 3143 3144 3145 3145 3145 3146 3148 3150 3153 3155 3156 3157 3157 3159 3162 3163 3162 3163 3164 3164 3165 3165 3166 3167 3167 3167 3168 3167 3167 3168 3168 3168 3170 3171 3172 3173 3174 3176 3177 3178
3127 3127 3127 3127 3127 3126 3126 3126 3126 3127 3127 3128 3129 3129 3131 3133 3133 3135 3137 3138 3140 3141 3141 3142 3143 3144 3144 3145 3148 3150 3151 3153 3154 3156 3157 3157 3160 3162 3162 3162 3163 3163 3163 3164 3165 3165 3165 3165 3166 3166 3167 3167 3167 3167 3168 3169 3170 3172 3173 3174 3175 3176
3125 3125 3125 3125 3125 3125 3124 3124 3124 3125 3126 3126 3127 3128 3129 3130 3131 3132 3133 3135 3138 3140 3140 3140 3141 3142 3143 3145 3146 3148 3150 3151 3153 3155 3157 3156 3157 3159 3161 3161 3161 3162 3162 3162 3164 3164 3164 3164 3165 3165 3165 3166 3166 3166 3166 3167 3168 3170 3170 3171 3173 3174
3123 3123 3123 3123 3123 3123 3123 3123 3123 3124 3124 3124 3125 3127 3127 3128 3128 3129 3130 3133 3135 3136 3137 3139 3140 3140 3142 3143 3145 3147 3148 3150 3151 3152 3154 3155 3155 3156 3158 3159 3160 3160 3161 3162 3162 3163 3163 3163 3164 3164 3164 3164 3165 3165 3165 3165 3166 3167 3168 3169 3170 3171
3122 3122 3122 3121 3121 3121 3121 3122 3122 3123 3123 3123 3124 3125 3126 3126 3126 3127 3128 3130 3131 3132 3134 3136 3137 3138 3140 3141 3143 3144 3146 3148 3150 3150 3150 3152 3152 3153 3154 3156 3157 3158 3159 3160 3161 3162 3162 3162 3163 3163 3162 3162 3163 3164 3164 3164 3164 3164 3166 3167 3168 3169
3120 3121 3120 3120 3120 3120 3120 3121 3121 3122 3121 3122 3123 3124 3125 3125 3125 3125 3126 3126 3127 3129 3131 3133 3133 3135 3137 3138 3140 3141 3142 3144 3146 3147 3148 3148 3150 3151 3152 3153 3154 3155 3157 3158 3158 3159 3160 3161 3162 3161 3160 3161 3161 3161 3162 3162 3162 3163 3163 3165 3166 3167
3119 3119 3119 3119 3120 3120 3120 3119 3120 3120 3120 3120 3122 3122 3123 3124 3123 3124 3124 3124 3124 3126 3128 3129 3130 3132 3133 3134 3136 3137 3138 3140 3142 3143 3144 3145 3146 3148 3149 3150 3151 3152 3154 3155 3156 3157 3158 3159 3160 3160 3159 3159 3158 3158 3159 3159 3160 3162 3162 3163 3164 3165
3118 3118 3118 3118 3119 3119 3119 3119 3119 3119 3119 3119 3120 3121 3121 3122 3122 3122 3123 3123 3123 3124 3125 3125 3126 3128 3130 3131 3132 3133 3135 3136 3138 3139 3140 3141 3143 3144 3146 3147 3149 3151 3151 3152 3153 3153 3155 3156 3157 3159 3158 3157 3156 3156 3157 3158 3158 3160 3161 3161 3161 3163
3117 3117 3117 3117 3118 3119 3118 3118 3118 3118 3118 3118 3118 3119 3119 3120 3120 3121 3121 3122 3122 3122 3123 3123 3124 3125 3126 3128 3129 3130 3132 3133 3134 3135 3136 3137 3139 3140 3142 3143 3145 3148 3148 3148 3150 3151 3152 3153 3154 3156 3155 3155 3155 3154 3155 3156 3157 3158 3159 3159 3159 3160
3116 3116 3116 3116 3117 3118 3117 3118 3117 3117 3117 3117 3117 3117 3117 3118 3118 3119 3119 3120 3120 3121 3121 3121 3122 3123 3123 3124 3126 3127 3129 3130 3131 3132 3132 3133 3135 3136 3138 3139 3141 3143 3144 3145 3147 3148 3149 3150 3151 3153 3153 3153 3153 3153 3154 3155 3155 3156 3156 3157 3157 3157
3114 3115 3115 3116 3116 3117 3117 3117 3117 3116 3116 3116 3116 3116 3116 3116 3117 3117 3117 3118 3118 3119 3119 3119 3120 3120 3121 3122 3123 3124 3126 3127 3128 3128 3129 3130 3131 3133 3134 3135 3137 3138 3140 3142 3144 3144 3144 3146 3148 3149 3150 3151 3151 3152 3154 3154 3153 3153 3154 3155 3155 3155
3113 3113 3114 3115 3115 3115 3116 3116 3116 3115 3115 3115 3115 3115 3115 3115 3115 3115 3115 3116 3116 3117 3117 3118 3118 3118 3119 3119 3120 3121 3122 3124 3124 3125 3126 3126 3128 3129 3130 3131 3132 3134 3135 3138 3139 3140 3141 3143 3143 3144 3146 3148 3149 3150 3151 3151 3151 3151 3152 3153 3154 3153
3112 3112 3113 3114 3114 3114 3114 3115 3114 3114 3114 3114 3114 3114 3114 3114 3113 3113 3113 3113 3114 3115 3115 3115 3116 3116 3117 3117 3117 3118 3119 3120 3121 3121 3122 3123 3124 3125 3126 3127 3128 3129 3131 3133 3134 3136 3137 3139 3139 3141 3142 3144 3146 3147 3148 3148 3149 3149 3150 3151 3152 3152
3110 3111 3112 3113 3113 3113 3113 3113 3113 3113 3112 3112 3112 3112 3112 3112 3112 3111 3111 3111 3111 3112 3112 3113 3113 3113 3114 3114 3115 3115 3116 3117 3117 3118 3119 3119 3120 3120 3121 3123 3124 3125 3127 3128 3129 3131 3132 3134 3135 3137 3138 3139 3141 3143 3144 3145 3146 3146 3148 3149 3149 3150
3108 3109 3111 3111 3111 3111 3111 3111 3111 3111 3111 3110 3110 3110 3109 3110 3110 3110 3110 3109 3109 3109 3109 3110 3110 3111 3111 3111 3111 3112 3112 3113 3114 3115 3115 3115 3115 3116 3117 3118 3119 3120 3121 3123 3125 3126 3127 3129 3130 3132 3133 3135 3137 3139 3140 3141 3143 3144 3145 3146 3147 3148
3107 3107 3109 3110 3110 3110 3110 3110 3110 3110 3110 3109 3109 3109 3108 3108 3109 3108 3108 3108 3107 3107 3107 3107 3108 3108 3108 3108 3108 3108 3109 3109 3109 3110 3111 3112 3112 3113 3113 3114 3116 3116 3117 3118 3119 3121 3123 3124 3125 3127 3128 3129 3132 3134 3135 3136 3139 3141 3142 3142 3143 3145
3105 3105 3107 3108 3108 3108 3108 3108 3108 3108 3108 3108 3108 3108 3107 3107 3107 3107 3107 3106 3106 3105 3105 3105 3105 3105 3106 3106 3106 3106 3106 3106 3106 3106 3107 3108 3108 3109 3110 3110 3112 3113 3113 3114 3114 3116 3117 3119 3120 3122 3124 3125 3127 3129 3130 3132 3134 3136 3137 3138 3139 3140
3103 3103 3104 3106 3106 3106 3106 3106 3106 3106 3106 3106 3106 3106 3105 3105 3105 3105 3105 3105 3104 3104 3104 3103 3103 3103 3103 3103 3103 3103 3103 3103 3103 3103 3103 3104 3105 3105 3106 3106 3107 3109 3110 3110 3111 3111 3112 3114 3115 3117 3119 3120 3121 3123 3125 3127 3129 3130 3132 3133 3134 3136
3102 3102 3102 3103 3104 3104 3104 3104 3103 3103 3103 3103 3103 3104 3103 3103 3103 3103 3103 3103 3103 3102 3102 3102 3101 3101 3101 3101 3101 3100 3100 3100 3100 3100 3100 3100 3101 3101 3102 3102 3103 3104 3105 3106 3107 3107 3108 3109 3110 3112 3114 3115 3115 3117 3120 3122 3124 3125 3127 3128 3129 3131
3100 3100 3100 3101 3102 3102 3101 3101 3101 3101 3101 3101 3101 3101 3101 3100 3100 3101 3100 3100 3100 3100 3100 3100 3099 3099 3099 3099 3099 3098 3098 3098 3097 3097 3097 3097 3097 3098 3098 3098 3099 3100 3100 3102 3103 3103 3104 3105 3105 3107 3109 3110 3110 3112 3114 3117 3119 3120 3122 3123 3125 3127
3097 3097 3098 3098 3099 3099 3099 3099 3099 3099 3098 3098 3098 3098 3098 3098 3098 3098 3098 3097 3097 3097 3097 3097 3097 3097 3096 3096 3096 3096 3096 3095 3095 3095 3095 3094 3094 3094 3094 3095 3095 3096 3096 3097 3098 3099 3100 3101 3101 3102 3103 3105 3106 3107 3110 3111 3113 3115 3117 3119 3121 3123
3095 3095 3095 3096 3097 3096 3096 3096 3096 3096 3096 3096 3096 3096 3095 3095 3095 3095 3095 3095 3095 3094 3094 3094 3094 3094 3094 3093 3093 3093 3093 3092 3092 3092 3092 3092 3091 3091 3090 3091 3091 3092 3093 3093 3093 3094 3095 3096 3097 3097 3098 3099 3100 3102 3105 3106 3107 3109 3112 3114 3116 3118